Regional Weather Roundup
Issued by NWS Newport/Morehead, NC

Current Version | Previous Version | Text Only | Print | Product List | Glossary Off
Versions: 1 2 3 4 5 6 7 8 9 10 11 12 13 14 15 16 17 18 19 20 21 22 23 24 25 26 27 28 29 30 31 32 33 34 35 36 37 38 39 40 41 42 43 44 45 46 47 48 49 50
000 ASUS42 KMHX 162325 RWRMHX WEATHER ROUNDUP FOR EASTERN NORTH CAROLINA NATIONAL WEATHER SERVICE NEWPORT/MOREHEAD CITY NC 700 PM EDT MON OCT 16 2017 NOTE: "FAIR" INDICATES FEW OR NO CLOUDS BELOW 12,000 FEET WITH NO SIGNIFICANT WEATHER AND/OR OBSTRUCTIONS TO VISIBILITY NCZ015>017-031-032-045>047-102-103-170000- NORTH COAST CITY SKY/WX TMP DP RH WIND PRES REMARKS EDENTON CLOUDY 59 55 85 CALM 30.11R ELIZABETH CITY CLOUDY 60 55 83 N14 30.09R KITTY HAWK CLOUDY 61 53 73 N15G22 30.05R MANTEO CLOUDY 62 54 76 N17G24 30.07R $$ NCZ045>047-081-094-103-104-170000- CENTRAL COAST CITY SKY/WX TMP DP RH WIND PRES REMARKS FRISCO LGT RAIN 64 61 90 N13G29 30.05R $$ NCZ095-097-098-100-101-170000- SOUTHERN COAST CITY SKY/WX TMP DP RH WIND PRES REMARKS BEAUFORT LGT RAIN 61 59 93 N21G30 30.05R CEDAR ISLAND NOT AVBL JACKSONVILLE CLOUDY 59 57 93 N14 30.08R PINEY ISLAND N/A N/A N/A N/A N20G29 30.05R WILMINGTON CLOUDY 59 53 80 N13G21 30.07R $$ NCZ011>013-027>030-043-044-078>080-089-090>093-098-170000- COASTAL PLAIN CITY SKY/WX TMP DP RH WIND PRES REMARKS AHOSKIE CLOUDY 57 54 91 CALM 30.13R CLINTON CLOUDY 59 56 92 NE5 30.11S ELIZABETHTOWN NOT AVBL GOLDSBORO CLOUDY 59 55 89 N6 30.10R GREENVILLE CLOUDY 59 54 82 N5 30.13R HAVELOCK CLOUDY 60 59 96 N20 30.08R KENANSVILLE CLOUDY 57 54 88 N6 30.11R KINSTON CLOUDY 59 54 82 N6 30.12R NEW BERN CLOUDY 59 57 93 N14G22 30.10R RICHLANDS CLOUDY 58 54 86 N10 30.10R ROCKY MOUNT CLOUDY 58 57 97 N3 30.13R WASHINGTON CLOUDY 57 53 84 NE6 30.11R WHITEVILLE CLOUDY 59 54 82 N7 30.10R $$ AMZ130-135-150-152-154-156-158-170-250-252-270-ANZ085-086-088-633-658-670-170000- MARINE OBSERVATIONS STATION/POSITION TIME TEMP WIND PRES WAVE SWELL AIR SEA DIR/SP/G HT/PER HT/PER (UTC) (F) (DEG/KT/KT) (MB) (FT/S) (FT/S) CHESAPEAKE LIGHT NOT AVBL 64 E VA BEACH 2250 64 69 360/ 23/ 27 1017.2 7/ 7 DUCK 2300 64 71 10/ 26/ 31 1017.1 2 E DUCK 2300 72 N/A 7/ 6 2/11 OREGON INLET 2300 63 74 360/ 15/ 23 1017.4 13E OREGON INLT 2248 73 N/A 7/ 7 2/12 HATTERAS CG 2300 66 76 20/ 26/ 32 1016.9 DIAMOND BUOY 2250 70 81 10/ 23/ 29 1015.0 6/ 6 2/ 9 CAPE LOOKOUT 2300 62 360/ 24/ 29 1016.4 BEAUFORT LAB 2300 62 76 360/ 17/ 22 1017.9 30 SE NEW RVR IN 2208 69 20/ 21/ 27 1014.8 30 SE NEW RVR IN NOT AVBL 27 SE WRIGHTSVLE 2308 67 78 20/ 21/ 29 1016.1 5 SE WRIGHTSVLE 2308 63 77 20/ 17/ 33 1017.9 225 S CAPE HAT 2250 78 79 290/ 4/ 6 1013.4 3/ 8 3/ 8 41 SE CHARLESTON 2310 75 81 20/ 21/ 27 1014.5 $$

USA.gov is the U.S. government's official web portal to all federal, state and local government web resources and services.